• MPC Preparation (Info)

  • MPEC 2013-D11 : 2013 CN129

    The following Minor Planet Electronic Circular may be linked-to from your own Web pages, but must not otherwise be redistributed electronically.

    A form allowing access to any MPEC is at the bottom of this page.


    Read MPEC 2013-D10 Read MPEC 2013-D12


    M.P.E.C. 2013-D11                                Issued 2013 Feb. 16, 16:31 UT
    
         The Minor Planet Electronic Circulars contain information on unusual
             minor planets and routine data on comets.  They are published
       on behalf of Commission 20 of the International Astronomical Union by the
              Minor Planet Center, Smithsonian Astrophysical Observatory,
                              Cambridge, MA 02138, U.S.A.
    
                 Prepared using the Tamkin Foundation Computer Network
    
                                  MPC@CFA.HARVARD.EDU
                URL https://www.minorplanetcenter.net/    ISSN 1523-6714
    
                                      2013 CN129
    
    Observations:
         K13CC9N* C2013 02 14.39668 11 02 21.071+09 00 45.20         20.2 wLED011F51
         K13CC9N  C2013 02 14.42585 11 02 15.273+09 03 38.66         20.0 wLED011F51
         K13CC9N  C2013 02 14.44059 11 02 12.334+09 05 06.32         20.1 wLED011F51
         K13CC9N KC2013 02 14.97298 11 00 30.80 +09 57 41.0          20.5 VuED011I93
         K13CC9N KC2013 02 14.98574 11 00 28.27 +09 58 57.3          20.2 VuED011I93
         K13CC9N KC2013 02 14.99593 11 00 26.24 +09 59 57.7          20.2 VuED011I93
         K13CC9N KC2013 02 15.13105 10 59 59.20 +10 13 19.6                uED011J95
         K13CC9N KC2013 02 15.13582 10 59 58.23 +10 13 47.3                uED011J95
         K13CC9N KC2013 02 15.14077 10 59 57.28 +10 14 16.3          20.2 RuED011J95
         K13CC9N KC2013 02 15.36441010 59 13.57 +10 37 03.3          19.7 RtED011W85
         K13CC9N KC2013 02 15.36843210 59 12.75 +10 37 27.4          19.7 RtED011W85
         K13CC9N KC2013 02 15.37244910 59 11.94 +10 37 50.9          19.9 RtED011W85
         K13CC9N KC2013 02 16.21032 10 56 30.56 +12 00 28.9          19.4 RoED011291
         K13CC9N KC2013 02 16.21189 10 56 30.23 +12 00 38.7          19.5 RoED011291
         K13CC9N KC2013 02 16.21346 10 56 29.91 +12 00 48.0          19.6 RoED011291
    
    Observer details:
    291 LPL/Spacewatch II.  Observer T. H. Bressi.  1.8-m f/2.7 reflector + CCD.
    F51 Pan-STARRS 1, Haleakala.  Observers N. Primak, A. Schultz, S. Watters,
        T. Goggia.  Measurer PS1 Science Consortium.  1.8-m Ritchey-Chretien
        + CCD.
    I93 St Pardon de Conques.  Observer F. Losse.  0.40-m f/3.7 reflector + CCD.
    J95 Great Shefford.  Observer P. Birtwhistle.  0.40-m f/6.0 Schmidt-Cassegrain
        + CCD.
    W85 Cerro Tololo-LCOGT A.  Observer T. Lister.  1.0-m f/8 Ritchey-Chretien
        + CCD.
    
    Orbital elements:
    2013 CN129                                               Earth MOID = 0.2619 AU
    Epoch 2013 Apr. 18.0 TT = JDT 2456400.5                 MPC
    M 208.45092              (2000.0)            P               Q
    n   1.05882237     Peri.  199.25815     +0.94987383     +0.12149612
    a   0.9533535      Node   148.94233     -0.15853198     +0.98133481
    e   0.3991367      Incl.   33.94265     -0.26945746     -0.14906606
    P   0.93           H   21.2           G   0.15           U   8
    Residuals in seconds of arc
    130214 F51  0.1-  0.1+    130214 I93  0.1+  0.0     130215 W85  0.1+  0.1-
    130214 F51  0.1+  0.0     130215 J95  0.1-  0.6+    130215 W85  0.1+  0.4-
    130214 F51  0.2+  0.1-    130215 J95  0.4-  0.1-    130216 291  0.2+  0.2-
    130214 I93  0.2-  0.1+    130215 J95  0.1+  0.5-    130216 291  0.1+  0.2+
    130214 I93  0.0   0.3+    130215 W85  0.3+  0.3-    130216 291  0.0   0.2+
    
    Ephemeris:
    2013 CN129               a,e,i = 0.95, 0.40, 34                  q = 0.5728
    Date    TT    R. A. (2000) Decl.     Delta      r     Elong.  Phase     V
    2013 01 17    11 53 33.7 -23 49 54   0.4524  1.1963   106.9    51.9    21.8
    ...
    2013 02 01    11 36 15.5 -10 36 54   0.3575  1.2534   132.1    35.7    20.9
    ...
    2013 02 09    11 18 07.9 +00 21 23   0.3245  1.2775   149.8    22.9    20.4
    ...
    2013 02 15    11 00 25.1 +10 00 33   0.3149  1.2928   163.5    12.5    20.0
    2013 02 16    10 57 10.8 +11 39 45   0.3148  1.2951   165.5    11.0    19.9
    2013 02 17    10 53 52.4 +13 18 46   0.3151  1.2973   167.3     9.7    19.9
    ...
    2013 02 23    10 33 01.8 +22 49 15   0.3263  1.3094   166.9     9.8    20.0
    ...
    2013 03 03    10 04 51.0 +33 13 11   0.3636  1.3217   151.2    21.2    20.6
    ...
    2013 03 18    09 23 26.8 +44 15 50   0.4782  1.3333   125.9    37.2    21.7
    
    A. U. Tomatic                (C) Copyright 2013 MPC           M.P.E.C. 2013-D11
    

    Read MPEC 2013-D10 Read MPEC 2013-D12


    MPEC number:

    Enter an MPEC number in one of the following forms:

    • 1997-B01 (the full form)
    • J97B01 (the packed version of the full form)
    • B01 (the abbreviated form)